Home > Weather > Riffa > Past weeks

Flag for Bahrain Past Weather in Riffa, Bahrain — Yesterday and Last 2 Weeks

Now
93 °F

Clear.


Feels Like: 117 °F
Forecast: 93 / 105 °F
Wind: 9 mph from Southeast

Location: Bahrain International Airport

Current Time: Jul 29, 2016 at 1:18:38 AM

Latest Report: Jul 29, 2016 at 12:00 AM


Visibility: 4 mi

Pressure: 29.50 "Hg

Humidity: 71%

Dew Point: 82 °F

Location of RiffaLocation

Past Weather in Riffa — Graph

°F

Riffa Temperature Yesterday

Maximum temperature yesterday: 99 °F (at 3:00 PM)
Minimum temperature yesterday: 91 °F (at 12:00 AM)
Average temperature yesterday: 94 °F

High & Low Weather Summary for the Past Weeks

 TemperatureHumidityPressure
High108 °F (Jul 20, 9:00 AM)89% (Jul 17, 10:00 PM)29.56 "Hg (Jul 17, 10:00 PM)
Low88 °F (Jul 18, 3:00 AM)13% (Jul 15, 12:00 PM)29.36 "Hg (Jul 23, 2:00 PM)
Average96 °F61%29.46 "Hg
* Reported Jul 14 12:00 AM — Jul 29 12:00 AM, Riffa, Weather by CustomWeather, © 2016

Note: Actual official high and low records may vary slightly from our data, if they occured in-between our weather recording intervals... More about our weather records

Advertising

Riffa Weather History for the Previous 24 Hours

Scroll right to see more
 ConditionsComfort  
Time TempWeatherWind HumidityBarometerVisibility
12:00 AM
Fri, Jul 29
93 °FClear.9 mph71%29.50 "Hg4 mi
11:00 PM
Thu, Jul 28
93 °FClear.9 mph71%29.50 "Hg4 mi
10:00 PM95 °FClear.12 mph67%29.50 "Hg4 mi
9:00 PM95 °FClear.13 mph71%29.50 "Hg4 mi
8:00 PM95 °FClear.8 mph75%29.50 "Hg5 mi
7:00 PM95 °FClear.12 mph71%29.47 "Hg4 mi
6:00 PM95 °FSunny.17 mph75%29.47 "Hg4 mi
5:00 PM97 °FSunny.14 mph67%29.47 "Hg4 mi
4:00 PM97 °FSunny.15 mph67%29.47 "Hg4 mi
3:00 PM99 °FSunny.8 mph64%29.47 "Hg4 mi
2:00 PM97 °FSunny.12 mph67%29.50 "Hg4 mi
1:00 PM97 °FPassing clouds.10 mph67%29.53 "Hg4 mi
12:00 PM97 °FPassing clouds.9 mph67%29.53 "Hg4 mi
11:00 AM97 °FClear.9 mph67%29.56 "Hg4 mi
10:00 AM95 °FPassing clouds.8 mph71%29.56 "Hg4 mi
9:00 AM95 °FPassing clouds.9 mph71%29.56 "Hg5 mi
8:00 AM93 °FClear.9 mph71%29.56 "Hg5 mi
7:00 AM93 °FClear.10 mph71%29.53 "Hg5 mi
6:00 AM93 °FClear.1 mph67%29.53 "Hg5 mi
5:00 AM91 °FClear.2 mph75%29.50 "Hg4 mi
4:30 AM91 °FClear.3 mph75%29.47 "Hg4 mi
4:00 AM91 °FClear.6 mph71%29.47 "Hg4 mi
3:00 AM91 °FClear.8 mph75%29.47 "Hg4 mi
2:00 AM91 °FClear.12 mph75%29.47 "Hg4 mi
1:00 AM91 °FClear.6 mph75%29.47 "Hg4 mi
Weather by CustomWeather, © 2016

See weather overviewHow to use our weather pages